Location: Ahstedt
(52.2048°N, 10.1060°E)
Time: 07:24:57
(UTC+00:00)

RUBIN 8/PSLV - Pass Details

Date: 18 January 2026
Orbit: 593 x 627 km, 98.1° (Epoch: 18 February)

Event Time Altitude Azimuth Distance (km) Brightness Sun altitude
Rises 05:12:33 0° 14° (NNE) 2,847 8.0 -18.7°
Reaches altitude 10° 05:14:44 10° 14° (NNE) 1,940 7.1 -18.4°
Maximum altitude 05:18:57 86° 285° (WNW) 604 4.4 -17.7°
Drops below altitude 10° 05:23:08 10° 198° (SSW) 1,932 7.0 -17.1°
Sets 05:25:18 0° 198° (SSW) 2,834 7.9 -16.8°
